User: anonymous   Login
Location: Sungai Bunut
(2.6333°N, 113.7333°E)
Time: 20:25:10
(UTC+00:00)
Language:

Ariane 44LP R/B - Orbit

View from above orbital plane
View from above orbital plane
View from above satellite
View from above satellite

Ground track
Ground track

The orbit data is extracted from the following two-line orbital elements,

1 26471U 00046C   22016.31704776  .00000275  00000-0  50478-3 0  9997
2 26471   3.5318 271.2494 5597342 227.6258  69.1611  4.48471693279983
Epoch (UTC): 16 January 2022 07:36:32
Eccentricity: 0.5597342
inclination: 3.5318°
perigee height: 460 km
apogee height: 17848 km
right ascension of ascending node: 271.2494°
argument of perigee: 227.6258°
revolutions per day: 4.48471693
mean anomaly at epoch: 69.1611°
orbit number at epoch: 27998

The dashed part of the orbit path shows where the satellite is in the earth's shadow,  

DLR